Regional Weather Roundup
Issued by NWS Northern Indiana

Home | Current Version | Previous Version | Graphics & Text | Print | Product List | Glossary On
Versions: 1 2 3 4 5 6 7 8 9 10 11 12 13 14 15 16 17 18 19 20 21 22 23 24 25 26 27 28 29 30 31 32 33 34 35 36 37 38 39 40 41 42 43 44 45 46 47 48 49 50
000
ASUS43 KIWX 021610
RWRIWX

KIWX WEATHER ROUNDUP
NATIONAL WEATHER SERVICE NORTHERN INDIANA
1100 AM EST FRI DEC 02 2016

NOTE: "FAIR" INDICATES FEW OR NO CLOUDS BELOW 12,000 FEET WITH NO
SIGNIFICANT WEATHER AND/OR OBSTRUCTIONS TO VISIBILITY.

* THESE STATIONS ARE NOT UNDER NWS QUALITY CONTROL. THEY ALSO MAY NOT
  REPORT WEATHER SUCH AS PRECIPITATION OR FOG.

INZ001>027-021700-
NORTHERN INDIANA

CITY           SKY/WX    TMP DP  RH WIND       PRES   REMARKS
GARY*          CLOUDY    41  32  70 W7        30.16R
VALPARAISO     CLOUDY    39  32  76 W12       30.16R
MICHIGAN CITY* CLOUDY    37  32  81 W8        30.15R
LAPORTE*       CLOUDY    39  38  97 W10       30.15R
KNOX*          CLOUDY    36  21  55 W9        30.16R
SOUTH BEND     CLOUDY    36  32  85 NW8       30.14R
ELKHART*       DRIZZLE   36  32  87 W9        30.12R
GOSHEN         CLOUDY    38  31  76 W14       30.12R
MONTICELLO*    CLOUDY    37  31  77 W9        30.18R
LOGANSPORT*    CLOUDY    36  32  87 W12       30.18R
ROCHESTER*     CLOUDY    37  36  93 W9        30.16R
WARSAW*        CLOUDY    36  32  87 W9        30.14R
ANGOLA*        CLOUDY    37  34  87 W10       30.09R
FORT WAYNE     CLOUDY    37  33  85 W13       30.14R
HUNTINGTON*    CLOUDY    36  34  91 W7        30.15R
PERU/GRISSOM   CLOUDY    37  34  87 W9        30.15R
MARION*        CLOUDY    36  33  89 W10       30.17R FOG

$$
INZ028>050-021700-
CENTRAL INDIANA

CITY           SKY/WX    TMP DP  RH WIND       PRES   REMARKS
LAFAYETTE      CLOUDY    38  33  82 W9        30.20R
KOKOMO*        CLOUDY    38  33  82 W14       30.18R
MUNCIE*        CLOUDY    38  32  79 W13       30.17R
INDIANAPOLIS   CLOUDY    38  30  73 W13       30.21R

$$
MIZ043>046-050>051-056>058-064>065-071>073-077>080-021700-
SOUTHWEST LOWER MICHIGAN

CITY           SKY/WX    TMP DP  RH WIND       PRES   REMARKS
BATTLE CREEK   CLOUDY    37  35  92 W10       30.09R
BENTON HARBOR  CLOUDY    40  29  64 NW8       30.13R
COLDWATER*     CLOUDY    37  34  87 W14G21    30.09R
HILLSDALE*     CLOUDY    36  32  87 W12G17    30.06R
HOLLAND        CLOUDY    38  29  70 NW7       30.11R
GRAND RAPIDS   CLOUDY    37  26  64 W8        30.10R
KALAMAZOO      CLOUDY    38  32  79 NW8       30.10R
STURGIS*       RAIN      37  33  85 W8        30.10R
THREE RIVERS*  CLOUDY    38  36  92 CALM      30.11R

$$
OHZ001>008-015>018-024>025-021700-
NORTHWEST OHIO

CITY           SKY/WX    TMP DP  RH WIND       PRES   REMARKS
WAUSEON*       CLOUDY    39  34  81 W17       30.08S
DEFIANCE       CLOUDY    39  33  79 W8        30.11S
FINDLAY        CLOUDY    38  32  79 W16G23    30.11R
TOLEDO EXPRESS PTSUNNY   39  34  82 W18       30.08R
TOLEDO METCALF CLOUDY    41  34  76 W20       30.09R
LIMA           CLOUDY    36  34  92 W13       30.13R

$$
AND FOR LAKE MICHIGAN COASTAL AND OPEN LAKE BUOY OBSERVATIONS

STATION/POSITION TEMP    WIND        PRES    VSBY  WAVE
                 AIR SEA DIR/SP/G                  HT/PER
                 (F)     (DEG/KT/KT) (MB)    (MI)  (FT/S)
CALUMET HARBOR    39     240/  4/  7 1020.6R
MICHIGAN CITY     39     250/ 20/ 23   N/A
BURNS HARBOR      40     260/ 14/ 18 1021.3R
SAINT JOSEPH      41     320/ 16/ 19 1020.7
SOUTH LAKE BUOY   37 49  300/ 14/ 17 1020.5R         4/ 5

$$
&&




USA.gov is the U.S. government's official web portal to all federal, state and local government web resources and services.